Willimantic, CT

11:04 PM EDT on April 19, 2018 (GMT -0400)
Windham

Weather History for KIJD - July, 2013

Change the Weather History Date:

Saturday, July 6, 2013

  Actual Average Record
Temperature  
Mean Temperature 82 °F -  
Max Temperature 91 °F 81 °F 99 °F (2010)
Min Temperature 72 °F 56 °F 42 °F (1962)
Cooling Degree Days 16    
Growing Degree Days 32 (Base 50)    
Moisture  
Dew Point 72 °F    
Average Humidity 73    
Maximum Humidity 93    
Minimum Humidity 47    
Precipitation  
Precipitation 0.00 in - - ()
Sea Level Pressure  
Sea Level Pressure 30.06 in    
Wind  
Wind Speed 3 mph (West)    
Max Wind Speed 12 mph    
Max Gust Speed 16 mph    
Visibility 10 miles    
Events      
Averages and records for this station are not official NWS values.
T = Trace of Precipitation, MM = Missing Value Source: NWS Daily Summary

Daily Weather History Graph

Daily Weather History Graph

Search for Another Location

Airport or City:

Astronomy

Jul. 06, 2013 Rise Set
Actual Time 5:20 AM EDT 8:25 PM EDT
Civil Twilight 4:47 AM EDT 8:59 PM EDT
Nautical Twilight 4:03 AM EDT 9:42 PM EDT
Astronomical Twilight 3:12 AM EDT 10:33 PM EDT
Moon 4:05 AM EDT (7/6) 7:04 PM EDT (7/6)
Length of Visible Light 16h 12m
Length of Day
15h 05m
Waning Crescent, 2% of the Moon is Illuminated
Jul 6
Waning Crescent
Jul 8
New
Jul 15
First Quarter
Jul 22
Full
Jul 29
Last Quarter

Hourly Weather History & Observations

Time (EDT) Temp. Heat Index Dew Point Humidity Pressure Visibility Wind Dir Wind Speed Gust Speed Precip Events Conditions
12:52 AM 75.9 °F - 71.1 °F 85% 30.09 in 10.0 mi SSW 3.5 mph - N/A   Clear
1:52 AM 73.9 °F - 71.1 °F 91% 30.10 in 10.0 mi Calm Calm - N/A   Clear
2:52 AM 73.0 °F - 70.0 °F 90% 30.11 in 10.0 mi Calm Calm - N/A   Clear
3:52 AM 73.0 °F - 70.0 °F 90% 30.10 in 10.0 mi Calm Calm - N/A   Clear
4:52 AM 72.0 °F - 70.0 °F 93% 30.10 in 10.0 mi Calm Calm - N/A   Clear
5:52 AM 72.0 °F - 70.0 °F 93% 30.11 in 9.0 mi Calm Calm - N/A   Clear
6:52 AM 75.0 °F - 71.1 °F 87% 30.11 in 10.0 mi Calm Calm - N/A   Clear
7:52 AM 80.1 °F 83.8 °F 72.0 °F 76% 30.10 in 10.0 mi West 4.6 mph - N/A   Clear
8:52 AM 82.0 °F 86.7 °F 72.0 °F 71% 30.10 in 10.0 mi Variable 3.5 mph - N/A   Clear
9:52 AM 84.9 °F 91.4 °F 73.0 °F 67% 30.09 in 10.0 mi WNW 6.9 mph - N/A   Clear
10:52 AM 87.1 °F 93.6 °F 72.0 °F 61% 30.08 in 10.0 mi WNW 4.6 mph - N/A   Clear
11:52 AM 88.0 °F 92.9 °F 70.0 °F 55% 30.06 in 10.0 mi WSW 11.5 mph 16.1 mph N/A   Scattered Clouds
12:52 PM 88.0 °F 93.8 °F 71.1 °F 57% 30.06 in 10.0 mi West 8.1 mph - N/A   Mostly Cloudy
1:52 PM 90.0 °F 95.4 °F 70.0 °F 52% 30.05 in 10.0 mi West 8.1 mph - N/A   Scattered Clouds
2:52 PM 91.0 °F 96.6 °F 70.0 °F 50% 30.04 in 10.0 mi West 8.1 mph - N/A   Clear
3:52 PM 91.9 °F 96.9 °F 69.1 °F 47% 30.03 in 10.0 mi West 8.1 mph 16.1 mph N/A   Partly Cloudy
4:52 PM 88.0 °F 92.9 °F 70.0 °F 55% 30.03 in 10.0 mi West 4.6 mph - N/A   Overcast
5:52 PM 88.0 °F 94.7 °F 72.0 °F 59% 30.01 in 10.0 mi NW 4.6 mph - N/A   Scattered Clouds
6:52 PM 88.0 °F 95.6 °F 73.0 °F 61% 30.01 in 10.0 mi Calm Calm - N/A   Clear
7:52 PM 84.9 °F 92.1 °F 73.9 °F 69% 30.00 in 10.0 mi Calm Calm - N/A   Clear
8:52 PM 82.9 °F 89.4 °F 73.9 °F 74% 30.01 in 10.0 mi Calm Calm - N/A   Clear
9:52 PM 79.0 °F - 73.9 °F 84% 30.03 in 10.0 mi Calm Calm - N/A   Clear
10:52 PM 77.0 °F - 73.9 °F 90% 30.04 in 10.0 mi Calm Calm - N/A   Clear
11:52 PM 75.9 °F - 73.0 °F 91% 30.04 in 10.0 mi Calm Calm - N/A   Clear